| time (UTC) | temp F | wind direction | speed MPH | gust MPH | rain 1hr in | rain 24hr in | rain mn in | humidity % | barometer mb |
| 20260906161017 | 66 | 194 | 3.0 | 7.0 | 0.00 | 0.00 | 0.00 | 63 | 1014.3 |
| 20260906160517 | 65 | 223 | 4.0 | 9.0 | 0.00 | 0.00 | 0.00 | 64 | 1014.2 |
| 20260906155516 | 64 | 181 | 6.0 | 8.0 | 0.00 | 0.00 | 0.00 | 67 | 1014.3 |
| 20260906153519 | 60 | 0 | 0.0 | 1.0 | 0.00 | 0.00 | 0.00 | 77 | 1014.2 |
| 20260906152520 | 58 | 0 | 0.0 | 1.0 | 0.00 | 0.00 | 0.00 | 82 | 1014.4 |
| 20260906152017 | 57 | 0 | 0.0 | 0.0 | 0.00 | 0.00 | 0.00 | 84 | 1014.3 |
| 20260906151019 | 56 | 0 | 0.0 | 0.0 | 0.00 | 0.00 | 0.00 | 85 | 1014.4 |
| 20260906150520 | 55 | 0 | 0.0 | 1.0 | 0.00 | 0.00 | 0.00 | 85 | 1014.3 |
| 20260906145516 | 53 | 0 | 0.0 | 0.0 | 0.00 | 0.00 | 0.00 | 86 | 1014.4 |
| 20260906145019 | 53 | 0 | 0.0 | 0.0 | 0.00 | 0.00 | 0.00 | 86 | 1014.4 |
| 20260906142520 | 50 | 0 | 0.0 | 0.0 | 0.00 | 0.00 | 0.00 | 86 | 1013.9 |
| 20260906142023 | 49 | 0 | 0.0 | 0.0 | 0.00 | 0.00 | 0.00 | 85 | 1013.9 |
| 20260906141018 | 49 | 0 | 0.0 | 6.0 | 0.00 | 0.00 | 0.00 | 85 | 1013.8 |
| 20260906140520 | 49 | 0 | 0.0 | 6.0 | 0.00 | 0.00 | 0.00 | 84 | 1013.7 |
| 20260906135518 | 49 | 78 | 1.0 | 4.0 | 0.00 | 0.00 | 0.00 | 84 | 1013.7 |
| 20260906135018 | 49 | 98 | 3.0 | 4.0 | 0.00 | 0.00 | 0.00 | 83 | 1013.7 |
| 20260906134018 | 49 | 82 | 2.0 | 4.0 | 0.00 | 0.00 | 0.00 | 83 | 1013.5 |
| 20260906132518 | 50 | 0 | 0.0 | 3.0 | 0.00 | 0.00 | 0.00 | 84 | 1013.6 |
| 20260906132022 | 50 | 0 | 0.0 | 3.0 | 0.00 | 0.00 | 0.00 | 84 | 1013.5 |
| 20260906131022 | 50 | 0 | 0.0 | 1.0 | 0.00 | 0.00 | 0.00 | 84 | 1013.5 |
| 20260906130520 | 50 | 0 | 0.0 | 3.0 | 0.00 | 0.00 | 0.00 | 83 | 1013.5 |
| 20260906125518 | 50 | 0 | 2.0 | 3.0 | 0.00 | 0.00 | 0.00 | 82 | 1013.4 |
| 20260906125020 | 51 | 0 | 0.0 | 0.0 | 0.00 | 0.00 | 0.00 | 82 | 1013.5 |
| 20260906124018 | 51 | 0 | 0.0 | 0.0 | 0.00 | 0.00 | 0.00 | 83 | 1013.4 |
| 20260906123517 | 51 | 0 | 0.0 | 0.0 | 0.00 | 0.00 | 0.00 | 83 | 1013.4 |
| 20260906122020 | 52 | 0 | 0.0 | 0.0 | 0.00 | 0.00 | 0.00 | 81 | 1013.4 |
| 20260906120520 | 52 | 0 | 0.0 | 0.0 | 0.00 | 0.00 | 0.00 | 81 | 1013.4 |
| 20260906115521 | 52 | 0 | 0.0 | 0.0 | 0.00 | 0.00 | 0.00 | 80 | 1013.3 |
| 20260906115017 | 52 | 0 | 0.0 | 0.0 | 0.00 | 0.00 | 0.00 | 80 | 1013.2 |
| 20260906112019 | 53 | 0 | 0.0 | 0.0 | 0.00 | 0.00 | 0.00 | 79 | 1013.3 |
| 20260906111019 | 54 | 0 | 0.0 | 0.0 | 0.00 | 0.00 | 0.00 | 78 | 1013.4 |
| 20260906110520 | 54 | 0 | 0.0 | 0.0 | 0.00 | 0.00 | 0.00 | 77 | 1013.2 |
| 20260906105518 | 54 | 0 | 0.0 | 0.0 | 0.00 | 0.00 | 0.00 | 76 | 1013.3 |
| 20260906105017 | 55 | 0 | 0.0 | 0.0 | 0.00 | 0.00 | 0.00 | 75 | 1013.2 |
| 20260906104539 | 55 | 0 | 0.0 | 0.0 | 0.00 | 0.00 | 0.00 | 75 | 1013.1 |
| 20260906104018 | 55 | 0 | 0.0 | 0.0 | 0.00 | 0.00 | 0.00 | 74 | 1013.1 |
| 20260906103517 | 55 | 0 | 0.0 | 0.0 | 0.00 | 0.00 | 0.00 | 73 | 1013.1 |
| 20260906102520 | 56 | 0 | 0.0 | 0.0 | 0.00 | 0.00 | 0.00 | 74 | 1013.0 |
| 20260906101018 | 57 | 0 | 0.0 | 0.0 | 0.00 | 0.00 | 0.00 | 73 | 1013.0 |
| 20260906100519 | 57 | 0 | 0.0 | 0.0 | 0.00 | 0.00 | 0.00 | 72 | 1013.1 |
| 20260906095518 | 57 | 0 | 0.0 | 0.0 | 0.00 | 0.00 | 0.00 | 72 | 1013.1 |
| 20260906095018 | 57 | 0 | 0.0 | 0.0 | 0.00 | 0.00 | 0.00 | 73 | 1013.1 |
| 20260906094538 | 58 | 0 | 0.0 | 0.0 | 0.00 | 0.00 | 0.00 | 71 | 1013.1 |
| 20260906094016 | 58 | 0 | 0.0 | 2.0 | 0.00 | 0.00 | 0.00 | 71 | 1013.2 |
| 20260906092519 | 58 | 0 | 0.0 | 2.0 | 0.00 | 0.00 | 0.00 | 71 | 1013.4 |
| 20260906092018 | 58 | 0 | 0.0 | 2.0 | 0.00 | 0.00 | 0.00 | 72 | 1013.4 |
| 20260906091538 | 58 | 0 | 0.0 | 3.0 | 0.00 | 0.00 | 0.00 | 72 | 1013.4 |
| 20260906091016 | 59 | 0 | 0.0 | 3.0 | 0.00 | 0.00 | 0.00 | 71 | 1013.4 |
| 20260906090515 | 59 | 202 | 2.0 | 3.0 | 0.00 | 0.00 | 0.00 | 71 | 1013.4 |
| 20260906085022 | 60 | 202 | 1.0 | 2.0 | 0.00 | 0.00 | 0.00 | 71 | 1013.5 |
| 20260906084020 | 60 | 202 | 1.0 | 4.0 | 0.00 | 0.00 | 0.00 | 70 | 1013.5 |
| 20260906083519 | 60 | 202 | 1.0 | 7.0 | 0.00 | 0.00 | 0.00 | 71 | 1013.5 |
| 20260906082521 | 59 | 192 | 5.0 | 7.0 | 0.00 | 0.00 | 0.00 | 72 | 1013.6 |
| 20260906082018 | 59 | 193 | 2.0 | 5.0 | 0.00 | 0.00 | 0.00 | 72 | 1013.5 |
| 20260906081537 | 59 | 204 | 2.0 | 4.0 | 0.00 | 0.00 | 0.00 | 71 | 1013.6 |
| 20260906081016 | 59 | 163 | 0.0 | 4.0 | 0.00 | 0.00 | 0.00 | 69 | 1013.6 |
| 20260906080519 | 59 | 172 | 0.0 | 1.0 | 0.00 | 0.00 | 0.00 | 69 | 1013.5 |
| 20260906075518 | 59 | 0 | 0.0 | 3.0 | 0.00 | 0.00 | 0.00 | 67 | 1013.6 |
| 20260906075020 | 58 | 184 | 1.0 | 3.0 | 0.00 | 0.00 | 0.00 | 66 | 1013.5 |
| 20260906074021 | 60 | 0 | 0.0 | 2.0 | 0.00 | 0.00 | 0.00 | 64 | 1013.5 |
| 20260906073520 | 60 | 184 | 0.0 | 2.0 | 0.00 | 0.00 | 0.00 | 64 | 1013.4 |
| 20260906072518 | 60 | 0 | 0.0 | 4.0 | 0.00 | 0.00 | 0.00 | 64 | 1013.4 |
| 20260906072021 | 60 | 184 | 2.0 | 4.0 | 0.00 | 0.00 | 0.00 | 64 | 1013.3 |
| 20260906071536 | 59 | 165 | 0.0 | 2.0 | 0.00 | 0.00 | 0.00 | 64 | 1013.4 |
| 20260906071017 | 60 | 0 | 0.0 | 1.0 | 0.00 | 0.00 | 0.00 | 62 | 1013.4 |
| 20260906065519 | 60 | 0 | 0.0 | 3.0 | 0.00 | 0.00 | 0.00 | 62 | 1013.3 |
| 20260906065017 | 60 | 175 | 0.0 | 3.0 | 0.00 | 0.00 | 0.00 | 62 | 1013.3 |
| 20260906064016 | 61 | 0 | 0.0 | 0.0 | 0.00 | 0.00 | 0.00 | 61 | 1013.4 |
| 20260906063518 | 61 | 0 | 0.0 | 2.0 | 0.00 | 0.00 | 0.00 | 62 | 1013.4 |
| 20260906062517 | 60 | 92 | 1.0 | 3.0 | 0.00 | 0.00 | 0.00 | 64 | 1013.4 |
| 20260906061020 | 62 | 0 | 0.0 | 0.0 | 0.00 | 0.00 | 0.00 | 59 | 1013.3 |
| 20260906060521 | 63 | 0 | 0.0 | 0.0 | 0.00 | 0.00 | 0.00 | 56 | 1013.3 |
| 20260906055519 | 64 | 0 | 0.0 | 3.0 | 0.00 | 0.00 | 0.00 | 55 | 1013.3 |
| 20260906055018 | 64 | 0 | 0.0 | 3.0 | 0.00 | 0.00 | 0.00 | 57 | 1013.3 |
| 20260906054538 | 65 | 248 | 0.0 | 3.0 | 0.00 | 0.00 | 0.00 | 57 | 1013.3 |
| 20260906054018 | 65 | 215 | 1.0 | 3.0 | 0.00 | 0.00 | 0.00 | 55 | 1013.3 |
| 20260906053518 | 65 | 222 | 1.0 | 2.0 | 0.00 | 0.00 | 0.00 | 55 | 1013.3 |
| 20260906051024 | 67 | 267 | 2.0 | 5.0 | 0.00 | 0.00 | 0.00 | 54 | 1013.4 |
| 20260906050519 | 67 | 262 | 3.0 | 7.0 | 0.00 | 0.00 | 0.00 | 54 | 1013.3 |
| 20260906045518 | 67 | 255 | 3.0 | 7.0 | 0.00 | 0.00 | 0.00 | 54 | 1013.2 |
| 20260906045018 | 67 | 269 | 4.0 | 7.0 | 0.00 | 0.00 | 0.00 | 53 | 1013.2 |
| 20260906044537 | 68 | 248 | 3.0 | 7.0 | 0.00 | 0.00 | 0.00 | 53 | 1013.3 |
| 20260906044018 | 68 | 244 | 3.0 | 7.0 | 0.00 | 0.00 | 0.00 | 53 | 1013.2 |
| 20260906043518 | 68 | 265 | 3.0 | 7.0 | 0.00 | 0.00 | 0.00 | 52 | 1013.2 |
| 20260906042519 | 68 | 257 | 4.0 | 9.0 | 0.00 | 0.00 | 0.00 | 52 | 1013.2 |
| 20260906042020 | 69 | 238 | 4.0 | 7.0 | 0.00 | 0.00 | 0.00 | 52 | 1013.1 |
| 20260906041019 | 69 | 256 | 2.0 | 4.0 | 0.00 | 0.00 | 0.00 | 53 | 1013.2 |
| 20260906040518 | 69 | 238 | 1.0 | 3.0 | 0.00 | 0.00 | 0.00 | 52 | 1013.0 |
| 20260906040041 | 70 | 255 | 2.0 | 3.0 | 0.00 | 0.00 | 0.00 | 52 | 1013.1 |
| 20260906035516 | 70 | 251 | 1.0 | 3.0 | 0.00 | 0.00 | 0.00 | 52 | 1013.0 |
| 20260906035016 | 70 | 262 | 1.0 | 4.0 | 0.00 | 0.00 | 0.00 | 52 | 1012.9 |
| 20260906034019 | 71 | 269 | 2.0 | 6.0 | 0.00 | 0.00 | 0.00 | 51 | 1012.8 |
| 20260906033519 | 71 | 226 | 2.0 | 6.0 | 0.00 | 0.00 | 0.00 | 50 | 1012.8 |
| 20260906032519 | 71 | 261 | 3.0 | 6.0 | 0.00 | 0.00 | 0.00 | 50 | 1012.7 |
| 20260906032020 | 71 | 259 | 2.0 | 6.0 | 0.00 | 0.00 | 0.00 | 50 | 1012.6 |
| 20260906031016 | 72 | 261 | 3.0 | 7.0 | 0.00 | 0.00 | 0.00 | 49 | 1012.5 |
| 20260906030516 | 72 | 272 | 3.0 | 6.0 | 0.00 | 0.00 | 0.00 | 49 | 1012.6 |
| 20260906030040 | 73 | 249 | 3.0 | 6.0 | 0.00 | 0.00 | 0.00 | 48 | 1012.5 |
| 20260906025518 | 73 | 255 | 3.0 | 8.0 | 0.00 | 0.00 | 0.00 | 48 | 1012.5 |
| 20260906024020 | 74 | 265 | 6.0 | 9.0 | 0.00 | 0.00 | 0.00 | 47 | 1012.4 |
| 20260906023522 | 75 | 263 | 4.0 | 9.0 | 0.00 | 0.00 | 0.00 | 45 | 1012.4 |
| 20260906022517 | 75 | 248 | 6.0 | 9.0 | 0.00 | 0.00 | 0.00 | 43 | 1012.4 |
| 20260906022020 | 76 | 250 | 6.0 | 11.0 | 0.00 | 0.00 | 0.00 | 40 | 1012.4 |
| 20260906021022 | 77 | 250 | 8.0 | 11.0 | 0.00 | 0.00 | 0.00 | 36 | 1012.5 |
| 20260906020517 | 77 | 264 | 7.0 | 10.0 | 0.00 | 0.00 | 0.00 | 36 | 1012.5 |
| 20260906020048 | 78 | 267 | 7.0 | 10.0 | 0.00 | 0.00 | 0.00 | 36 | 1012.5 |
| 20260906014019 | 78 | 237 | 6.0 | 10.0 | 0.00 | 0.00 | 0.00 | 37 | 1012.5 |
| 20260906013520 | 78 | 232 | 6.0 | 9.0 | 0.00 | 0.00 | 0.00 | 37 | 1012.4 |
| 20260906013037 | 78 | 244 | 5.0 | 9.0 | 0.00 | 0.00 | 0.00 | 36 | 1012.5 |
| 20260906012518 | 79 | 238 | 6.0 | 9.0 | 0.00 | 0.00 | 0.00 | 36 | 1012.4 |
| 20260906012018 | 79 | 238 | 4.0 | 8.0 | 0.00 | 0.00 | 0.00 | 36 | 1012.5 |
| 20260906010524 | 79 | 221 | 5.0 | 9.0 | 0.00 | 0.00 | 0.00 | 35 | 1012.5 |
| 20260906005518 | 79 | 242 | 2.0 | 7.0 | 0.00 | 0.00 | 0.00 | 35 | 1012.5 |
| 20260906005018 | 79 | 214 | 3.0 | 5.0 | 0.00 | 0.00 | 0.00 | 35 | 1012.5 |
| 20260906004021 | 80 | 271 | 5.0 | 10.0 | 0.00 | 0.00 | 0.00 | 34 | 1012.5 |
| 20260906003517 | 80 | 245 | 6.0 | 11.0 | 0.00 | 0.00 | 0.00 | 34 | 1012.5 |
| 20260906003035 | 81 | 261 | 7.0 | 11.0 | 0.00 | 0.00 | 0.00 | 33 | 1012.4 |
| 20260906002019 | 82 | 228 | 6.0 | 12.0 | 0.00 | 0.00 | 0.00 | 33 | 1012.4 |
| 20260906001019 | 83 | 218 | 7.0 | 13.0 | 0.00 | 0.00 | 0.00 | 31 | 1012.5 |
| 20260906000518 | 83 | 214 | 9.0 | 16.0 | 0.00 | 0.00 | 0.00 | 31 | 1012.4 |
| 20260905235521 | 83 | 282 | 9.0 | 13.0 | 0.00 | 0.00 | 0.00 | 32 | 1012.4 |
| 20260905235020 | 83 | 224 | 7.0 | 13.0 | 0.00 | 0.00 | 0.00 | 31 | 1012.5 |
| 20260905234017 | 83 | 211 | 5.0 | 11.0 | 0.00 | 0.00 | 0.00 | 32 | 1012.5 |
| 20260905233518 | 83 | 297 | 6.0 | 11.0 | 0.00 | 0.00 | 0.00 | 34 | 1012.5 |
| 20260905232524 | 84 | 226 | 8.0 | 16.0 | 0.00 | 0.00 | 0.00 | 31 | 1012.5 |
| 20260905231022 | 83 | 254 | 6.0 | 10.0 | 0.00 | 0.00 | 0.00 | 33 | 1012.7 |
| 20260905230519 | 84 | 208 | 6.0 | 10.0 | 0.00 | 0.00 | 0.00 | 32 | 1012.7 |
| 20260905230059 | 82 | 205 | 3.0 | 7.0 | 0.00 | 0.00 | 0.00 | 35 | 1012.8 |
| 20260905225515 | 82 | 0 | 2.0 | 8.0 | 0.00 | 0.00 | 0.00 | 36 | 1012.9 |
| 20260905225018 | 83 | 0 | 4.0 | 11.0 | 0.00 | 0.00 | 0.00 | 34 | 1012.9 |
| 20260905224024 | 82 | 248 | 3.0 | 11.0 | 0.00 | 0.00 | 0.00 | 36 | 1013.0 |
| 20260905223518 | 83 | 261 | 7.0 | 11.0 | 0.00 | 0.00 | 0.00 | 33 | 1013.0 |
| 20260905222519 | 83 | 312 | 6.0 | 10.0 | 0.00 | 0.00 | 0.00 | 38 | 1013.1 |
| 20260905222021 | 81 | 259 | 2.0 | 9.0 | 0.00 | 0.00 | 0.00 | 36 | 1013.1 |
| 20260905221537 | 82 | 87 | 1.0 | 9.0 | 0.00 | 0.00 | 0.00 | 37 | 1013.2 |
| 20260905221018 | 83 | 209 | 5.0 | 9.0 | 0.00 | 0.00 | 0.00 | 34 | 1013.3 |
| 20260905220518 | 82 | 227 | 4.0 | 10.0 | 0.00 | 0.00 | 0.00 | 35 | 1013.3 |
| 20260905215519 | 83 | 284 | 4.0 | 12.0 | 0.00 | 0.00 | 0.00 | 36 | 1013.4 |
| 20260905215019 | 84 | 239 | 6.0 | 12.0 | 0.00 | 0.00 | 0.00 | 36 | 1013.4 |
| 20260905214536 | 83 | 263 | 2.0 | 9.0 | 0.00 | 0.00 | 0.00 | 36 | 1013.3 |
| 20260905213523 | 81 | 209 | 5.0 | 12.0 | 0.00 | 0.00 | 0.00 | 37 | 1013.4 |
| 20260905212521 | 81 | 234 | 4.0 | 10.0 | 0.00 | 0.00 | 0.00 | 40 | 1013.5 |
| 20260905212018 | 82 | 221 | 6.0 | 11.0 | 0.00 | 0.00 | 0.00 | 40 | 1013.6 |
| 20260905211019 | 82 | 266 | 6.0 | 11.0 | 0.00 | 0.00 | 0.00 | 38 | 1013.7 |
| 20260905210520 | 81 | 211 | 4.0 | 11.0 | 0.00 | 0.00 | 0.00 | 37 | 1013.7 |
| 20260905205521 | 80 | 259 | 5.0 | 9.0 | 0.00 | 0.00 | 0.00 | 39 | 1013.8 |
| 20260905205019 | 80 | 334 | 2.0 | 10.0 | 0.00 | 0.00 | 0.00 | 39 | 1013.8 |
| 20260905204016 | 79 | 92 | 3.0 | 7.0 | 0.00 | 0.00 | 0.00 | 42 | 1013.8 |
| 20260905202517 | 78 | 223 | 5.0 | 11.0 | 0.00 | 0.00 | 0.00 | 42 | 1013.8 |
| 20260905202020 | 78 | 317 | 6.0 | 10.0 | 0.00 | 0.00 | 0.00 | 46 | 1013.9 |
| 20260905201019 | 78 | 296 | 2.0 | 10.0 | 0.00 | 0.00 | 0.00 | 47 | 1013.9 |
| 20260905195520 | 78 | 270 | 3.0 | 15.0 | 0.00 | 0.00 | 0.00 | 44 | 1014.1 |
| 20260905195022 | 78 | 230 | 6.0 | 15.0 | 0.00 | 0.00 | 0.00 | 44 | 1014.1 |
| 20260905194019 | 76 | 251 | 2.0 | 9.0 | 0.00 | 0.00 | 0.00 | 51 | 1014.2 |
| 20260905193515 | 77 | 252 | 4.0 | 9.0 | 0.00 | 0.00 | 0.00 | 47 | 1014.2 |
| 20260905192020 | 77 | 251 | 4.0 | 9.0 | 0.00 | 0.00 | 0.00 | 50 | 1014.3 |
| 20260905191020 | 75 | 327 | 2.0 | 11.0 | 0.00 | 0.00 | 0.00 | 50 | 1014.5 |
| 20260905190522 | 76 | 296 | 5.0 | 11.0 | 0.00 | 0.00 | 0.00 | 50 | 1014.5 |
| 20260905185518 | 76 | 311 | 6.0 | 10.0 | 0.00 | 0.00 | 0.00 | 49 | 1014.5 |
| 20260905185017 | 76 | 221 | 6.0 | 10.0 | 0.00 | 0.00 | 0.00 | 52 | 1014.5 |
| 20260905184018 | 76 | 167 | 4.0 | 11.0 | 0.00 | 0.00 | 0.00 | 50 | 1014.5 |
| 20260905183518 | 75 | 243 | 6.0 | 11.0 | 0.00 | 0.00 | 0.00 | 53 | 1014.7 |
| 20260905182519 | 75 | 270 | 6.0 | 11.0 | 0.00 | 0.00 | 0.00 | 55 | 1014.6 |
| 20260905182017 | 74 | 276 | 3.0 | 9.0 | 0.00 | 0.00 | 0.00 | 53 | 1014.5 |
| 20260905181539 | 74 | 213 | 6.0 | 9.0 | 0.00 | 0.00 | 0.00 | 53 | 1014.6 |
| 20260905181018 | 73 | 188 | 6.0 | 9.0 | 0.00 | 0.00 | 0.00 | 55 | 1014.6 |
| 20260905180517 | 72 | 228 | 1.0 | 10.0 | 0.00 | 0.00 | 0.00 | 54 | 1014.6 |
| 20260905175519 | 72 | 254 | 3.0 | 8.0 | 0.00 | 0.00 | 0.00 | 58 | 1014.5 |
| 20260905175020 | 72 | 227 | 5.0 | 8.0 | 0.00 | 0.00 | 0.00 | 58 | 1014.5 |
| 20260905174018 | 71 | 249 | 3.0 | 6.0 | 0.00 | 0.00 | 0.00 | 59 | 1014.3 |
| 20260905173520 | 71 | 227 | 3.0 | 6.0 | 0.00 | 0.00 | 0.00 | 59 | 1014.4 |
| 20260905172517 | 70 | 230 | 2.0 | 7.0 | 0.00 | 0.00 | 0.00 | 59 | 1014.3 |
| 20260905172019 | 70 | 237 | 1.0 | 6.0 | 0.00 | 0.00 | 0.00 | 60 | 1014.3 |
| 20260905171018 | 69 | 188 | 2.0 | 7.0 | 0.00 | 0.00 | 0.00 | 63 | 1014.4 |
| 20260905165019 | 67 | 252 | 1.0 | 4.0 | 0.00 | 0.00 | 0.00 | 67 | 1014.3 |
| 20260905164020 | 66 | 0 | 1.0 | 6.0 | 0.00 | 0.00 | 0.00 | 69 | 1014.3 |
| 20260905163521 | 66 | 180 | 1.0 | 6.0 | 0.00 | 0.00 | 0.00 | 69 | 1014.3 |